This is the latest recevied weather packets stored in our database for station/object AB4BJ-10. If no packets are shown the sender has not sent any weather packets the latest 10 day(s).
| Time | Temp. | Humidity | Pressure | Rain* | Wind** | Luminosity | Snow |
|---|---|---|---|---|---|---|---|
| 1788570823 | 27.78° C | 79% | 1010.6 hPa | 0 mm | - | - | - |
| 1788570785 | 27.78° C | 79% | 1010.6 hPa | 0 mm | - | - | - |
| 1788570319 | 28.33° C | 78% | 1010.6 hPa | 0 mm | - | - | - |
| 1788570184 | 28.33° C | 78% | 1010.6 hPa | 0 mm | - | - | - |
| 1788569884 | 28.33° C | 78% | 1010.6 hPa | 0 mm | - | - | - |
| 1788569584 | 28.89° C | 77% | 1010.5 hPa | 0 mm | - | - | - |
| 1788569283 | 28.89° C | 76% | 1010.5 hPa | 0 mm | - | - | - |
| 1788568983 | 28.89° C | 75% | 1010.4 hPa | 0 mm | - | - | - |
| 1788568683 | 29.44° C | 75% | 1010.2 hPa | 0 mm | - | - | - |
| 1788568383 | 29.44° C | 74% | 1010.3 hPa | 0 mm | - | - | - |
| 1788567782 | 30° C | 72% | 1010.3 hPa | 0 mm | - | - | - |
| 1788567482 | 30.56° C | 71% | 1010.3 hPa | 0 mm | - | - | - |
| 1788567182 | 30.56° C | 69% | 1010.3 hPa | 0 mm | - | - | - |
| 1788566881 | 30.56° C | 67% | 1010.3 hPa | 0 mm | - | - | - |
| 1788566581 | 31.11° C | 67% | 1010.3 hPa | 0 mm | - | - | - |
| 1788565980 | 31.11° C | 65% | 1010.3 hPa | 0 mm | - | - | - |
| 1788565681 | 31.67° C | 65% | 1010.3 hPa | 0 mm | - | - | - |
| 1788565381 | 31.67° C | 63% | 1010.4 hPa | 0 mm | - | - | - |
| 1788565081 | 31.67° C | 63% | 1010.3 hPa | 0 mm | - | - | - |
| 1788564822 | 32.22° C | 64% | 1010.2 hPa | 0 mm | - | - | - |
| 1788564779 | 32.22° C | 64% | 1010.2 hPa | 0 mm | - | - | - |
| 1788564179 | 32.78° C | 59% | 1010.2 hPa | 0 mm | - | - | - |
| 1788563578 | 32.78° C | 65% | 1010 hPa | 0 mm | - | - | - |
| 1788562978 | 32.78° C | 64% | 1009.6 hPa | 0 mm | - | - | - |
| 1788562377 | 33.33° C | 63% | 1009.7 hPa | 0 mm | - | - | - |
* Rain latest hour (hover to see other rain measurements)
** Current wind speed in m/s (hover to see current wind gust speed)